Time,TemperatureF,DewpointF,PressureIn,WindDirection,WindDirectionDegrees,WindSpeedMPH,WindSpeedGustMPH,Humidity,HourlyPrecipIn,Conditions,Clouds,dailyrainin,SoftwareType,DateUTC
2013-08-26 00:24:00,70.0,63.0,-100.00,North,358,8.0,-999.0,79,0.00,,,-99.99,,2013-08-26 04:24:00,
2013-08-26 00:34:00,70.0,63.0,-100.00,North,358,8.0,-999.0,79,0.00,,,-99.99,,2013-08-26 04:34:00,
2013-08-26 00:44:00,70.0,63.0,-100.00,North,358,8.0,-999.0,79,0.00,,,-99.99,,2013-08-26 04:44:00,
2013-08-26 01:23:00,70.0,63.0,-100.00,North,8,6.0,-999.0,80,0.00,,,-99.99,,2013-08-26 05:23:00,
2013-08-26 01:33:00,70.0,63.0,-100.00,North,8,6.0,-999.0,80,0.00,,,-99.99,,2013-08-26 05:33:00,
2013-08-26 01:44:00,70.0,63.0,-100.00,North,8,6.0,-999.0,80,0.00,,,-99.99,,2013-08-26 05:44:00,
2013-08-26 02:22:00,69.0,64.0,-100.00,North,8,7.0,-999.0,84,0.00,,,-99.99,,2013-08-26 06:22:00,
2013-08-26 02:32:00,69.0,64.0,-100.00,North,8,7.0,-999.0,84,0.00,,,-99.99,,2013-08-26 06:32:00,
2013-08-26 02:42:00,69.0,64.0,-100.00,North,8,7.0,-999.0,84,0.00,,,-99.99,,2013-08-26 06:42:00,
2013-08-26 03:22:00,69.0,65.0,-100.00,North,5,8.0,-999.0,86,0.00,,,-99.99,,2013-08-26 07:22:00,
2013-08-26 03:32:00,69.0,65.0,-100.00,North,5,8.0,-999.0,86,0.00,,,-99.99,,2013-08-26 07:32:00,
2013-08-26 03:42:00,69.0,65.0,-100.00,North,5,8.0,-999.0,86,0.00,,,-99.99,,2013-08-26 07:42:00,
2013-08-26 04:22:00,69.0,65.0,-100.00,North,4,7.0,-999.0,88,0.00,,,-99.99,,2013-08-26 08:22:00,
2013-08-26 04:32:00,69.0,65.0,-100.00,North,4,7.0,-999.0,88,0.00,,,-99.99,,2013-08-26 08:32:00,
2013-08-26 04:42:00,69.0,65.0,-100.00,North,4,7.0,-999.0,88,0.00,,,-99.99,,2013-08-26 08:42:00,
2013-08-26 05:22:00,67.0,64.0,-100.00,North,7,7.0,-999.0,90,0.00,,,-99.99,,2013-08-26 09:22:00,
2013-08-26 05:33:00,67.0,64.0,-100.00,North,7,7.0,-999.0,90,0.00,,,-99.99,,2013-08-26 09:33:00,
2013-08-26 05:43:00,67.0,64.0,-100.00,North,7,7.0,-999.0,90,0.00,,,-99.99,,2013-08-26 09:43:00,
2013-08-26 06:23:00,67.0,64.0,-100.00,NNE,20,6.0,-999.0,90,0.00,,,-99.99,,2013-08-26 10:23:00,
2013-08-26 06:32:00,67.0,64.0,-100.00,NNE,20,6.0,-999.0,90,0.00,,,-99.99,,2013-08-26 10:32:00,
2013-08-26 06:42:00,67.0,64.0,-100.00,NNE,20,6.0,-999.0,90,0.00,,,-99.99,,2013-08-26 10:42:00,
2013-08-26 07:22:00,66.0,63.0,-100.00,NNE,13,4.0,-999.0,90,0.00,,,-99.99,,2013-08-26 11:22:00,
2013-08-26 07:33:00,66.0,63.0,-100.00,NNE,13,4.0,-999.0,90,0.00,,,-99.99,,2013-08-26 11:33:00,
2013-08-26 07:42:00,66.0,63.0,-100.00,NNE,13,4.0,-999.0,90,0.00,,,-99.99,,2013-08-26 11:42:00,
2013-08-26 08:22:00,67.0,63.0,-100.00,NNE,15,6.0,-999.0,89,0.00,,,-99.99,,2013-08-26 12:22:00,
2013-08-26 08:32:00,67.0,63.0,-100.00,NNE,15,6.0,-999.0,89,0.00,,,-99.99,,2013-08-26 12:32:00,
2013-08-26 08:42:00,67.0,63.0,-100.00,NNE,15,6.0,-999.0,89,0.00,,,-99.99,,2013-08-26 12:42:00,
2013-08-26 09:22:00,70.0,63.0,-100.00,NE,41,7.0,-999.0,78,0.00,,,-99.99,,2013-08-26 13:22:00,
2013-08-26 09:32:00,70.0,63.0,-100.00,NE,41,7.0,-999.0,78,0.00,,,-99.99,,2013-08-26 13:32:00,
2013-08-26 09:42:00,70.0,63.0,-100.00,NE,41,7.0,-999.0,78,0.00,,,-99.99,,2013-08-26 13:42:00,
2013-08-26 10:22:00,74.0,63.0,-100.00,NE,49,9.0,-999.0,68,0.00,,,-99.99,,2013-08-26 14:22:00,
2013-08-26 10:32:00,74.0,63.0,-100.00,NE,49,9.0,-999.0,68,0.00,,,-99.99,,2013-08-26 14:32:00,
2013-08-26 10:42:00,74.0,63.0,-100.00,NE,49,9.0,-999.0,68,0.00,,,-99.99,,2013-08-26 14:42:00,
2013-08-26 10:45:00,75.0,61.0,-100.00,NE,52,12.0,-999.0,60,0.00,,,-99.99,,2013-08-26 14:45:00,
2013-08-26 11:22:00,75.0,61.0,-100.00,NE,52,12.0,-999.0,60,0.00,,,-99.99,,2013-08-26 15:22:00,
2013-08-26 11:35:00,75.0,61.0,-100.00,NE,52,12.0,-999.0,60,0.00,,,-99.99,,2013-08-26 15:35:00,
2013-08-26 11:45:00,77.0,60.0,-100.00,ENE,60,11.0,-999.0,56,0.00,,,-99.99,,2013-08-26 15:45:00,
2013-08-26 12:29:00,77.0,60.0,-100.00,ENE,60,11.0,-999.0,56,0.00,,,-99.99,,2013-08-26 16:29:00,
2013-08-26 12:37:00,77.0,60.0,-100.00,ENE,60,11.0,-999.0,56,0.00,,,-99.99,,2013-08-26 16:37:00,
2013-08-26 13:24:00,78.0,-99.9,-100.00,ENE,57,14.0,-999.0,46,0.00,,,-99.99,,2013-08-26 17:24:00,
2013-08-26 13:37:00,78.0,-99.9,-100.00,ENE,57,14.0,-999.0,46,0.00,,,-99.99,,2013-08-26 17:37:00,
2013-08-26 13:43:00,78.0,-99.9,-100.00,ENE,57,14.0,-999.0,46,0.00,,,-99.99,,2013-08-26 17:43:00,
2013-08-26 14:22:00,78.0,58.0,-100.00,ENE,65,12.0,-999.0,51,0.00,,,-99.99,,2013-08-26 18:22:00,
2013-08-26 14:32:00,78.0,58.0,-100.00,ENE,65,12.0,-999.0,51,0.00,,,-99.99,,2013-08-26 18:32:00,
2013-08-26 14:42:00,78.0,58.0,-100.00,ENE,65,12.0,-999.0,51,0.00,,,-99.99,,2013-08-26 18:42:00,
2013-08-26 15:22:00,78.0,61.0,-100.00,ENE,70,11.0,-999.0,55,0.00,,,-99.99,,2013-08-26 19:22:00,
2013-08-26 15:32:00,78.0,61.0,-100.00,ENE,70,11.0,-999.0,55,0.00,,,-99.99,,2013-08-26 19:32:00,
2013-08-26 15:42:00,78.0,61.0,-100.00,ENE,70,11.0,-999.0,55,0.00,,,-99.99,,2013-08-26 19:42:00,
2013-08-26 16:22:00,78.0,63.0,-100.00,East,81,8.0,-999.0,59,0.00,,,-99.99,,2013-08-26 20:22:00,
2013-08-26 16:32:00,78.0,63.0,-100.00,East,81,8.0,-999.0,59,0.00,,,-99.99,,2013-08-26 20:32:00,
2013-08-26 16:43:00,78.0,63.0,-100.00,East,81,8.0,-999.0,59,0.00,,,-99.99,,2013-08-26 20:43:00,
2013-08-26 17:22:00,79.0,64.0,-100.00,ESE,108,9.0,-999.0,60,0.00,,,-99.99,,2013-08-26 21:22:00,
2013-08-26 17:35:00,79.0,64.0,-100.00,ESE,108,9.0,-999.0,60,0.00,,,-99.99,,2013-08-26 21:35:00,
2013-08-26 17:44:00,79.0,64.0,-100.00,ESE,108,9.0,-999.0,60,0.00,,,-99.99,,2013-08-26 21:44:00,
2013-08-26 18:26:00,79.0,64.0,-100.00,ESE,111,8.0,-999.0,61,0.00,,,-99.99,,2013-08-26 22:26:00,
2013-08-26 18:34:00,79.0,64.0,-100.00,ESE,111,8.0,-999.0,61,0.00,,,-99.99,,2013-08-26 22:34:00,
2013-08-26 18:42:00,79.0,64.0,-100.00,ESE,111,8.0,-999.0,61,0.00,,,-99.99,,2013-08-26 22:42:00,
2013-08-26 19:22:00,79.0,65.0,-100.00,ESE,117,7.0,-999.0,62,0.00,,,-99.99,,2013-08-26 23:22:00,
2013-08-26 19:34:00,79.0,65.0,-100.00,ESE,117,7.0,-999.0,62,0.00,,,-99.99,,2013-08-26 23:34:00,
2013-08-26 19:42:00,79.0,65.0,-100.00,ESE,117,7.0,-999.0,62,0.00,,,-99.99,,2013-08-26 23:42:00,
2013-08-26 20:22:00,77.0,66.0,-100.00,SE,130,5.0,-999.0,68,0.00,,,-99.99,,2013-08-27 00:22:00,
2013-08-26 20:32:00,77.0,66.0,-100.00,SE,130,5.0,-999.0,68,0.00,,,-99.99,,2013-08-27 00:32:00,
2013-08-26 20:42:00,77.0,66.0,-100.00,SE,130,5.0,-999.0,68,0.00,,,-99.99,,2013-08-27 00:42:00,
2013-08-26 21:22:00,75.0,67.0,-100.00,West,269,1.0,-999.0,74,0.00,,,-99.99,,2013-08-27 01:22:00,
2013-08-26 21:32:00,75.0,67.0,-100.00,West,269,1.0,-999.0,74,0.00,,,-99.99,,2013-08-27 01:32:00,
2013-08-26 21:42:00,75.0,67.0,-100.00,West,269,1.0,-999.0,74,0.00,,,-99.99,,2013-08-27 01:42:00,
2013-08-26 22:22:00,71.0,67.0,-100.00,NW,311,1.0,-999.0,88,0.00,,,-99.99,,2013-08-27 02:22:00,
2013-08-26 22:32:00,71.0,67.0,-100.00,NW,311,1.0,-999.0,88,0.00,,,-99.99,,2013-08-27 02:32:00,
2013-08-26 22:42:00,71.0,67.0,-100.00,NW,311,1.0,-999.0,88,0.00,,,-99.99,,2013-08-27 02:42:00,
2013-08-26 23:23:00,70.0,67.0,-100.00,NW,313,1.0,-999.0,92,0.00,,,-99.99,,2013-08-27 03:23:00,
2013-08-26 23:36:00,70.0,67.0,-100.00,NW,313,1.0,-999.0,92,0.00,,,-99.99,,2013-08-27 03:36:00,
2013-08-26 23:44:00,70.0,67.0,-100.00,NW,313,1.0,-999.0,92,0.00,,,-99.99,,2013-08-27 03:44:00,
2013-08-26 23:45:00,69.0,67.0,-100.00,NW,314,2.0,-999.0,93,0.00,,,-99.99,,2013-08-27 03:45:00,